Location: Newark
(45.5000°N, 11.4167°E)
Time: 21:16:37
(UTC+00:00)

Vanguard 3 - Pass Details

Date: 27 August 2019
Orbit: 508 x 3262 km, 33.3° (Epoch: 13 October)

Event Time Altitude Azimuth Distance (km) Brightness Sun altitude
Rises 12:27:20 0° 205° (SSW) 6,582 12.4 51.4°
Reaches altitude 10° 12:34:21 10° 189° (S) 5,036 12.0 50.8°
Maximum altitude 12:41:44 17° 156° (SSE) 3,806 11.1 50.1°
Drops below altitude 10° 12:47:23 10° 121° (ESE) 3,707 10.6 49.5°
Sets 12:51:17 0° 101° (ESE) 4,223 10.6 49.1°
